Budapest, Hungary

5:17 AM CEST on August 28, 2016 (GMT +0200)
IBUDAPES25 | | Change Station

Elev 374 ft 47.49 °N, 19.07 °E | Updated 11 seconds ago

Clear
Clear
64.9 °F
Feels Like 64.9 °F
N
0.0
Wind Variable Wind from North
Gusts 0.0 mph

Today
High -- | Low -- °F
--% Chance of Precip.
Yesterday
High -- | Low -- °F
Precip. -- in
Pressure 30.15 in
Visibility -9999.0 miles
Clouds
Dew Point 55 °F
Humidity 70%
Rainfall 0.00 in
Snow Depth Not available.
5:57 AM 7:31 PM
Waning Crescent, 19% visible
METAR LHBP 280300Z VRB03KT CAVOK 14/13 Q1021 NOSIG
Pressure 30.15 in
Visibility -9999.0 miles
Clouds
Dew Point 55 °F
Humidity 70%
Rainfall 0.00 in
Snow Depth Not available.
5:57 AM 7:31 PM
Waning Crescent, 19% visible
METAR LHBP 280300Z VRB03KT CAVOK 14/13 Q1021 NOSIG

10-Day Weather Forecast

×

Almanac

Astronomy

Aug. 28, 2016 Rise Set
Actual Time
Civil Twilight
Nautical Twilight
Astronomical Twilight
Moon
Length of Visible Light
Length of Day
Tomorrow will be .
, % of the Moon is Illuminated

Today's Extremes

Country Highs Country Lows

Community

WunderPhotos

Upload Photos

1,935,512 photos uploaded!

WunderBlog® & News

Nearby

Air Quality

  Air Quality AQ Index Pollutant
Not available.

Snow Depth

Station Depth Elevation

Earthquake Activity

City Distance Mag. Time & Date
Minimum magnitude displayed is 2.5.

Coastal Water Temperatures

Place Temperature

Stations

Nearby Weather Stations

Station Location Temp. Windchill Dew Point Humidity Wind Precip. Elev Updated Type